Location: Namasale
(1.5000°N, 32.6167°E)
Time: 01:52:37
(UTC+00:00)

Hubble Space Telescope - Pass Details

Date: 07 December 2021
Orbit: 535 x 538 km, 28.5° (Epoch: 24 January)

Event Time Altitude Azimuth Distance (km) Brightness Sun altitude
Exits shadow 03:01:36 - 335° (NNW) 2,137 3.4 -9.7°
Reaches altitude 10° 03:02:55 10° 347° (NNW) 1,767 3.1 -9.3°
Maximum altitude 03:05:34 17° 27° (NNE) 1,402 3.0 -8.7°
Drops below altitude 10° 03:08:13 10° 68° (ENE) 1,771 4.1 -8.1°
Sets 03:11:08 0° 89° (E) 2,663 5.7 -7.5°
